{"data":{"norad_id":63502,"intl_designator":"2025-071K","name":"STARLINK-33818","alt_names":[],"object_type":"PAYLOAD","status":"ACTIVE","operator":null,"country":"US","launch_date":"2025-04-07","launch_site_code":"AFWTR","launch_vehicle":null,"mission":null,"orbit_class":"UNKNOWN","rcs_meters":null,"size_class":null,"mass_kg":null,"dimensions":null,"purposes":["comms"],"wikipedia_slug":null,"has_3d_model":false,"image_url":null,"decayed_at":null,"tle_current":{"epoch":"2026-09-20T20:50:14.562240Z","epoch_age_seconds":123749,"freshness":"FRESH","line1":"1 63502U 25071K   26263.86822410  .00009852  00000+0  30235-3 0  9990","line2":"2 63502  53.1597 311.8504 0000574  39.1624 320.9421 15.34397903 82679","mean_motion":15.34397903,"eccentricity":5.74e-5,"inclination_deg":53.1597,"raan_deg":311.8504,"arg_perigee_deg":39.1624,"mean_anomaly_deg":320.9421,"bstar":0.00030235,"rev_number":8267,"period_min":93.847886339297,"perigee_km":462.31680835258,"apogee_km":463.10213752767,"semimajor_km":6840.8464729401,"source":"CELESTRAK","updated_at":"2026-09-21T09:00:35.014927Z"}}}